www.pogodaiklimat.ru

Погода и климат >> Архив погоды >> Россия >> Краснодарский край >> Приморско-Ахтарск


АРХИВ ПОГОДЫ в Приморско-Ахтарске

Время (UTC), дата Ветер
(напр.,м/с)
 
Видим.   Явления Облачность Т
(С)
Тd
(С)
f
(%)
Тe
(С)
Тes
(С)
Комфортность P
(гПа)
Po
(гПа)
Тmin
(С)
Tmax
(С)
R
(мм)
R24
(мм)
S
(см)
00 15.08 В 3 10 км ясно +22.8 +5.0 31 +23 +23 комфорт 1008.1 1007.7
03 15.08 В 4 10 км ясно +22.2 +3.9 30 +22 +22 комфорт 1007.3 1006.9 +22.2
06 15.08 В 4
{10}
10 км ясно +26.5 +4.5 24 +25 +31 комфорт 1007.1 1006.7 +22.1
09 15.08 ЮВ 2 10 км 3/0
[Ci fib]
+33.2 +8.5 22 +32 +47 жарко 1006.4 1006.0
12 15.08 Ю 2 10 км 3/0
[Ci fib]
+36.4 +11.1 22 +36 +46 очень
жарко
1005.2 1004.8
15 15.08 СЗ 2 10 км 1/0
[Ci fib]
+28.6 +20.1 60 +35 +36 очень
душно
1005.0 1004.6 +36.7
18 15.08 З 2 10 км ясно +24.7 +18.9 70 +30 +30 очень
душно
1005.7 1005.2
21 15.08 СЗ 1 10 км 10/0
[Ac trans Ci sp]
+25.1 +19.5 71 +30 +30 душно 1006.0 1005.5
00 16.08 Ю 1 10 км 10/0
[Ac und]
+23.2 +20.0 82 +30 +30 очень
душно
1006.2 1005.7
03 16.08 З 1 10 км 10/6 600 м
[Sc Ac und]
+24.0 +21.3 85 +30 +30 очень
душно
1005.9 1005.5 +23.2
06 16.08 З 1 10 км 10/10 600 м
[Cb calv]
+25.0 +21.5 81 +32 +32 очень
душно
1006.2 1005.8
09 16.08 СЗ 2 10 км 10/10 600 м
[Cb calv]
+26.9 +21.0 70 +34 +34 очень
душно
1006.3 1005.8
12 16.08 С 2 10 км 10/10 600 м
[Cb calv]
+25.7 +20.2 72 +32 +32 очень
душно
1006.0 1005.5
15 16.08 СЗ 2 10 км 10/10 600 м
[Cb calv]
+25.6 +20.3 73 +32 +32 очень
душно
1005.9 1005.5 +27.7
18 16.08 З 2 10 км 10/3 600 м
[Cu med, cong Ac trans]
+24.2 +20.1 78 +30 +30 очень
душно
1008.4 1007.9
21 16.08 С 4
{10}
10 км в посл. час ливневой дождь 10/10 600 м
[Cb calv]
+24.5 +19.2 72 +29 +29 душно 1007.3 1006.8
00 17.08 СЗ 2
{10}
10 км {ливн. осадки} 10/10 600 м
[Cb calv]
+24.5 +19.2 72 +29 +29 душно 1008.0 1007.5
03 17.08 штиль 0 4000 м дымка {ливн. осадки} 10/10 600 м
[Cb calv]
+21.3 +19.5 89 +26 +26 душно 1008.2 1007.7 +21.2 0.8
06 17.08 ЮЗ 1 10 км {ливн. осадки} 10/10 600 м
[Cb calv]
+23.6 +20.3 82 +29 +29 душно 1008.8 1008.4
09 17.08 СЗ 2 10 км {ливн. осадки} 6/6 600 м
[Cb calv]
+25.3 +19.6 71 +31 +37 очень
душно
1009.1 1008.7
12 17.08 СЗ 4 10 км {ливн. осадки} 5/5
[Cu hum]
+24.9 +18.2 66 +29 +33 душно 1009.6 1009.2
15 17.08 З 2 10 км ясно +24.0 +17.3 66 +28 +29 душно 1009.9 1009.5 +26.2 0.3
18 17.08 З 1 10 км ясно +21.8 +17.1 75 +26 +26 душно 1010.3 1009.8
21 17.08 СЗ 2 10 км 10/0
[Ci fib]
+22.9 +15.8 64 +27 +27 душно 1010.3 1009.8
00 18.08 С 3 10 км 8/0
[Ci sp]
+22.2 +15.3 65 +26 +26 душно 1010.2 1009.8
03 18.08 С 3 10 км 10/0
[Ci fib]
+21.5 +14.8 66 +25 +25 комфорт 1010.2 1009.8 +21.4
06 18.08 С 3 10 км 10/0
[Ci]
+23.2 +15.4 62 +27 +32 душно 1010.6 1010.2
09 18.08 СЗ 3 10 км 10/0
[Ci]
+25.0 +16.2 58 +28 +38 жарко 1011.1 1010.6
12 18.08 СЗ 3 10 км 10/3 600 м
[Cu hum Ci]
+24.5 +15.3 57 +27 +32 жарко 1010.7 1010.2
15 18.08 СЗ 3 10 км 10/6 600 м
[Sc Ci]
+23.6 +15.4 60 +27 +27 жарко 1011.0 1010.6 +25.0
18 18.08 С 3
{12}
10 км в посл. час ливневой дождь 10/10 600 м
[Cb calv]
+19.7 +14.5 72 +22 +22 комфорт 1012.9 1012.5
21 18.08 С 2 10 км гроза без осадков {ливн. осадки} 10/0
[Ac trans]
+20.5 +17.7 84 +25 +25 комфорт 1013.2 1012.8
00 19.08 В 1 4000 м дымка {гроза} 10/0
[Ac und]
+19.9 +18.1 89 +24 +24 комфорт 1013.7 1013.3
03 19.08 штиль 0 4000 м дымка 10/6 600 м
[Sc diur, vesp Ac trans]
+19.8 +18.3 91 +22 +22 комфорт 1014.2 1013.7 +19.1 7
06 19.08 Ю 1 4000 м в посл. час ливневой дождь 10/6 600 м
[Cb calv Ac und]
+20.6 +19.1 91 +26 +27 душно 1015.7 1015.2
09 19.08 штиль 0 10 км 3/1 600 м
[Sc diur, vesp Ac trans]
+25.5 +18.5 65 +30 +46 душно 1016.0 1015.5
12 19.08 СЗ 2 10 км 6/3 600 м
[Sc Ac trans]
+26.3 +19.1 65 +32 +37 очень
душно
1016.1 1015.6
15 19.08 С 2 10 км 8/6 600 м
[Cu Sc Ac trans]
+24.9 +19.5 72 +30 +30 душно 1016.4 1016.0 +26.3 0.8
18 19.08 С 1 10 км 3/0
[Ac trans]
+24.5 +20.4 78 +30 +30 очень
душно
1017.1 1016.7
21 19.08 С 2 10 км ясно +23.4 +19.5 79 +30 +30 очень
душно
1016.9 1016.5
00 20.08 С 1 10 км ясно +22.7 +19.9 84 +29 +29 очень
душно
1016.8 1016.3
03 20.08 СВ 2 10 км 6/6 600 м
[Sc]
+22.5 +19.7 84 +29 +29 очень
душно
1017.6 1017.2 +22.4
06 20.08 В 2 10 км ясно +26.6 +19.8 66 +32 +39 очень
душно
1018.1 1017.6
09 20.08 С 3 10 км ясно +27.9 +21.6 69 +36 +48 очень
душно
1017.6 1017.1
12 20.08 С 4 10 км 1/1 600 м
[Cu med, cong]
+29.2 +21.2 62 +37 +43 очень
душно
1017.1 1016.6
15 20.08 С 4 10 км 10/4 600 м
[Cu med, cong Ci fib]
+29.5 +19.9 56 +36 +36 очень
душно
1015.7 1015.3 +29.9
18 20.08 С 3 10 км 3/0
[Ac trans]
+27.8 +19.2 60 +33 +33 очень
душно
1016.9 1016.4
21 20.08 СВ 4 10 км 10/0
[Ci fib]
+26.3 +19.0 64 +31 +31 душно 1016.5 1016.0
00 21.08 СВ 4 10 км 10/0
[Ci fib]
+24.7 +18.0 66 +29 +29 душно 1015.4 1014.9
03 21.08 СВ 4
{13}
10 км 10/10 600 м
[Cb calv]
+24.0 +16.6 63 +27 +27 жарко 1014.7 1014.3 +24.0
06 21.08 СВ 4 10 км 9/5 600 м
[Cu Sc Ac trans Ci fib]
+25.3 +16.5 58 +29 +30 душно 1014.7 1014.2 +23.5
09 21.08 СВ 3 10 км 8/3 600 м
[Sc Ac trans Ci fib]
+31.6 +15.5 38 +34 +40 душно 1013.8 1013.3
12 21.08 В 4-10
{11}
10 км 3/0
[Ci fib]
+35.6 +9.3 20 +34 +41 очень
жарко
1012.4 1011.9
15 21.08 СВ 4
{10}
10 км 10/3 600 м
[Cu med, cong Ac trans Ci sp]
+34.6 +7.8 19 +33 +33 жарко 1011.5 1011.1 +36.0
18 21.08 С 2 10 км 10/3 600 м
[Cu med, cong Ac trans Ci sp]
+28.6 +17.4 51 +33 +33 очень
душно
1012.5 1012.0
21 21.08 СВ 3
{10}
10 км 10/9 600 м
[Sc Ci fib]
+28.1 +14.7 44 +31 +31 душно 1012.0 1011.5

 

Местоположение метеостанции Приморско-Ахтарск (Краснодарский край, Россия): широта 46.03 долгота 38.15 высота над уровнем моря 4 м.

В архиве по умолчанию представлена погода в Приморско-Ахтарске за последнюю неделю. Архивные данные за месяц целиком и за предыдущие месяцы, начиная с января 2011 года, Вы можете получить, выбрав интересующий диапазон дат из раскрывающегося списка и нажав кнопку "Ввод!".


*Определитесь, кто Вы:
робот инопланетянин человек

Внимание! Время в таблицах - всемирное. Для получения местного времени необходимо прибавить поправку, которая равна 3 ч.

Смотрите также архив погоды в соседних городах и на ближайших метеорологических станциях:

Погода в Каневской (Краснодарский край, Россия) (63 км)
Погода в Тимашевске (Краснодарский край, Россия) (75 км)
Погода в Должанке (Краснодарский край, Россия) (79 км)
Погода в Славянске-на-Кубани (Краснодарский край, Россия) (83 км)
Погода в Ейске (Краснодарский край, Россия) (86 км)
Погода в Староминская (Краснодарский край, Россия) (87 км)
Погода в Темрюке (Краснодарский край, Россия) (99 км)
Погода в Маргаритово (Ростовская область, Россия) (114 км)
Погода в Кореновске (Краснодарский край, Россия) (121 км)
Погода в Мариуполе (Донецкая область, Украина) (122 км)

Пояснения к столбцам:

Ветер - указаны скорость ветра в м/с - средняя за 10 мин, порывы в срок и между сроками (в фигурных скобках) и направление, откуда дует ветер: С - северный, СВ - северо-восточный, В - восточный, ЮВ - юго-восточный, Ю - южный, ЮЗ - юго-западный, З - западный, СЗ - северо-западный.
Видимость - горизонтальная дальность видимости в метрах или километрах. При видимости от 1 до 10 км при отсутствии осадков обычно наблюдается дымка, при ухудшении видимости до 1 км и менее - туман. В сухую погоду видимость может ухудшаться дымом, пылью или мглою.
Явления - указаны атмосферные явления, наблюдавшиеся в срок или в последний час перед сроком; фигурными скобками обозначены явления, наблюдавшиеся между сроками (за 1-3 часа до срока); квадратными скобками обозначены град или гололедные отложения с указанием их диаметра в мм.
Облачность - указаны через наклонную черту общая и нижняя облачность в баллах и высота нижней границы облаков в метрах; квадратными скобками обозначены формы облаков: Ci - перистые, Cs - перисто-слоистые, Cc - перисто-кучевые, Ac - высококучевые, As - высокослоистые, Sc - слоисто-кучевые, Ns - слоисто-дождевые, Cu - кучевые, Cb - кучево-дождевые. Подробнее классификацию облаков см. в Атласе облаков (PDF).
T - Температура воздуха - температура, измеренная на высоте 2 м над землей.
Td - Температура точки росы - температура, при понижении до которой содержащийся в воздухе водяной пар достигнет насыщения.
f - Относительная влажность воздуха - влажноcть воздуха, измеренная на высоте 2 м над землей.
Te - Эффективная температура - температура, которую ощущает одетый по сезону человек в тени. Характеристика душности погоды. При расчете учитывается влияние влажности воздуха и скорости ветра на теплоощущения человека.
Tes - Эффективная температура на солнце - температура, которую ощущает человек, с поправкой на солнечный нагрев. Характеристика знойности погоды. Зависит от высоты солнца над горизонтом, облачности и скорости ветра. Ночью, в пасмурную погоду, а также при ветре 12 м/с и более поправка равна нулю.
P - Атмосферное давление - приведенное к уровню моря атмосферное давление.
Po - Атмосферное давление - измеренное на уровне метеостанции атмосферное давление.
Tmin - Минимальная температура - минимум температуры воздуха на высоте 2 м над землей.
Tmax - Максимальная температура - максимум температуры воздуха на высоте 2 м над землей.
R - Количество осадков - Количество выпавших осадков за период времени, мм. При наведении курсора мыши на число - период времени, за который выпало указанное количество осадков.
R24 - Количество осадков - Количество выпавших осадков за 24 часа, мм.
S - Снежный покров - Высота снежного покрова, см. При наведении курсора мыши на число - состояние снежного покрова и степень покрытия местности в баллах.